Weather in Katherine

Australia     14°27′55″S   132°15′47″E
temp.,
°C
wind,
m/s
gust,
m/s
humid.,
%
clouds,
%
prec.,
mm/h
press.,
hPa
HPBL,
m
6 march, sat
sat600:30+26nw258380 0.0 1007135
03:30+25nw269190 0.0 1006216
06:30+24wnw389125 0.0 1007354
09:30+29wnw467213 0.0 1009519
12:30+35w45490 0.0 10071357
15:30+37w34399 0.0 10042384
18:30+26n588558 11.7 1005181
21:30+24wnw498479 14.8 1007249
7 march, sun
sun700:30+24nw2378100 0.0 100763
03:30+23w3108699 0.1 1006399
06:30+23nnw129656 0.4 100729
09:30+29wnw477674 0.4 1008574
12:30+34wnw565099 0.0 10061249
15:30+35w354864 0.0 10032026
18:30+30ene247069 1.9 1003141
21:30+26nw477484 3.9 1006145
8 march, mon
mon800:30+26nw3988100 0.2 1006314
03:30+25nw279558 0.2 1006295
06:30+24n249691 0.0 1007133
09:30+29nw347495 0.0 1009446
12:30+34wnw335195 0.0 10071321
15:30+36w224190 0.0 10042284
18:30+32nne025688 0.0 100447
21:30+26nw487393 0.2 1008300
9 march, tue
tue900:30+24wnw1280100 0.4 100756
03:30+24ene237999 0.4 100764
06:30+23ese1286100 1.6 100824
09:30+29ene116893 1.7 1010345
12:30+35ne114775 0.0 10081346
15:30+35se124267 0.0 10052107
18:30+31n235730 0.0 100671
21:30+27nne497240 0.5 1009305
10 march, wed
wed1000:30+26nne3779100 0.1 1010259
03:30+25ene2380100 0.1 1009106
06:30+24ene128590 0.1 101049
09:30+29ne346789 0.1 1012652
12:30+33ene345175 0.1 10101667
15:30+33nne244775 0.1 10071913
18:30+30ese115776 0.0 100925
21:30+28wnw237086 0.0 1010114